Location: ????????
(55.7667°N, 37.4833°E)
Time: 19:38:53
(UTC+00:00)

CZ-2C R/B - Visible Passes

Search period start: 15 May 2026 00:00
Search period end: 25 May 2026 00:00
Orbit: 781 x 868 km, 98.4° (Epoch: 15 May)

Date Brightness Start Highest point End Pass type
(mag) Time Alt. Az. Time Alt. Az. Time Alt. Az.
15 May 4.8 19:19:14 10° E 19:22:13 16° NE 19:25:11 10° N visible
15 May 2.9 20:57:43 18° SE 21:01:32 60° ENE 21:06:38 10° N visible
15 May 3.7 22:39:09 17° SW 22:42:07 28° W 22:46:36 10° NNW visible
16 May 5.0 19:01:01 10° ENE 19:03:02 12° NE 19:05:02 10° NNE visible
16 May 3.4 20:37:54 14° SE 20:42:06 44° ENE 20:47:00 10° N visible
16 May 3.3 22:19:21 20° SSW 22:22:25 39° W 22:27:17 10° NNW visible
17 May 3.8 20:18:06 10° ESE 20:22:43 34° ENE 20:27:20 10° N visible
17 May 2.9 21:59:32 22° S 22:02:47 53° W 22:07:52 10° NNW visible
17 May 4.8 23:43:59 10° W 23:44:14 10° W 23:44:30 10° WNW visible
18 May 4.2 19:59:07 10° ESE 20:03:22 26° NE 20:07:36 10° N visible
18 May 2.6 21:39:44 22° S 21:43:12 72° WSW 21:48:24 10° NNW visible
18 May 4.5 23:21:35 10° WSW 23:24:22 14° W 23:27:10 10° NW visible
19 May 4.5 19:40:21 10° E 19:44:05 20° NE 19:47:48 10° N visible
19 May 2.6 21:19:56 20° SSE 21:23:40 84° ENE 21:28:52 10° NNW visible
19 May 4.2 23:01:22 12° SW 23:04:34 20° W 23:08:19 10° NW visible
20 May 4.8 19:21:45 10° E 19:24:50 16° NE 19:27:54 10° N visible
20 May 2.9 21:00:08 17° SE 21:04:11 63° ENE 21:09:18 10° NNW visible
20 May 3.8 22:41:34 15° SW 22:44:48 27° W 22:49:11 10° NW visible
21 May 4.9 19:03:28 10° ENE 19:05:38 13° NE 19:07:48 10° NNE visible
21 May 3.3 20:40:20 13° SE 20:44:44 46° ENE 20:49:40 10° N visible
21 May 3.4 22:21:46 18° SSW 22:25:06 36° W 22:29:53 10° NNW visible
22 May 3.7 20:20:40 10° SE 20:25:20 35° ENE 20:30:00 10° N visible
22 May 3.0 22:01:58 19° SSW 22:05:28 50° W 22:10:30 10° NNW visible
23 May 4.1 20:01:42 10° ESE 20:05:59 27° NE 20:10:17 10° N visible
23 May 2.6 21:42:10 19° S 21:45:52 69° WSW 21:51:02 10° NNW visible
23 May 4.6 23:24:35 10° WSW 23:27:05 13° W 23:29:36 10° NW visible
24 May 4.5 19:42:53 10° E 19:46:42 21° NE 19:50:30 10° N visible
24 May 2.6 21:22:22 18° SSE 21:26:19 88° ENE 21:31:31 10° NNW visible
24 May 4.3 23:03:49 10° SW 23:07:16 19° W 23:10:52 10° NW visible
